{"data":{"norad_id":51139,"intl_designator":"2022-005AM","name":"STARLINK-3172","alt_names":[],"object_type":"PAYLOAD","status":"ACTIVE","operator":null,"country":"US","launch_date":"2022-01-19","launch_site_code":"AFETR","launch_vehicle":null,"mission":null,"orbit_class":"UNKNOWN","rcs_meters":null,"size_class":null,"mass_kg":null,"dimensions":null,"purposes":["comms"],"wikipedia_slug":null,"has_3d_model":false,"image_url":null,"decayed_at":null,"tle_current":{"epoch":"2026-09-20T03:13:51.657888Z","epoch_age_seconds":79783,"freshness":"FRESH","line1":"1 51139U 22005AM  26263.13462567  .00001359  00000+0  52642-4 0  9991","line2":"2 51139  53.1588 131.6539 0001316  87.2486 272.8666 15.33550459258298","mean_motion":15.33550459,"eccentricity":0.0001316,"inclination_deg":53.1588,"raan_deg":131.6539,"arg_perigee_deg":87.2486,"mean_anomaly_deg":272.8666,"bstar":5.2642e-5,"rev_number":25829,"period_min":93.899746927075,"perigee_km":464.32883365121,"apogee_km":466.13000769313,"semimajor_km":6843.3664206722,"source":"CELESTRAK","updated_at":"2026-09-20T09:00:39.590643Z"}}}